Wind_Speed
14 13 12 11 10 10 11 11 10 8 9 10 10 9 9 7 7 9 11 13 14 14 13 13 13 13 12 12 12 12 12 12 11 11 11 11 11 11 12 12 12 13 13 12 12 12 12 13 14 15 16 16 17 17 17 17 17 17 18 18 18 18 18 18 18 18 19 19 19 17 15 13 12 11 10 10 9 9 9 9 9 10 11 12 12
13 12 11 11 11 11 11 11 11 9 8 10 10 10 10 8 7 8 9 12 14 14 14 13 13 13 12 12 11 11 11 11 11 11 10 10 10 11 11 11 11 12 12 12 12 12 12 12 13 14 15 16 17 17 17 17 18 18 18 18 18 18 18 18 18 19 19 19 18 17 14 13 11 10 10 9 9 9 9 9 8 9 10 11 11
13 13 12 11 11 11 11 11 11 10 10 10 11 11 10 9 8 7 8 10 12 13 14 13 13 12 12 12 11 11 11 11 11 10 10 10 9 10 10 11 11 11 12 12 12 12 12 12 12 13 15 16 17 17 17 17 18 18 18 18 18 17 17 18 18 19 20 19 18 15 13 12 10 10 9 9 9 9 9 9 8 9 9 10 10
15 14 13 12 12 11 11 12 13 13 11 11 12 11 10 9 8 8 8 9 10 12 12 12 12 11 11 11 11 10 10 10 10 10 9 9 9 9 9 10 10 11 11 12 12 13 12 12 12 13 14 15 16 17 17 17 17 17 17 17 17 17 17 18 19 20 19 18 16 14 12 11 10 9 8 8 8 9 9 9 8 8 9 9 9
16 15 14 13 13 12 12 13 13 13 12 11 12 12 10 9 9 8 7 8 9 10 11 11 11 10 10 9 9 9 9 10 9 9 9 9 9 8 9 9 9 10 11 12 12 13 13 13 13 13 13 14 15 16 16 16 16 16 16 16 16 17 17 18 19 19 18 17 15 13 11 10 9 8 8 7 8 8 9 8 8 8 8 9 9
17 17 15 14 14 13 13 14 14 14 13 12 11 12 12 11 9 8 8 8 8 9 11 11 12 11 11 10 10 9 9 9 9 9 9 9 9 8 8 9 9 9 10 11 12 13 13 13 14 14 14 14 15 15 15 15 15 15 16 16 17 17 17 18 19 18 17 15 14 12 10 9 8 8 7 7 7 7 8 7 7 7 7 8 9
18 17 16 15 14 14 14 14 14 14 14 13 12 12 13 12 11 9 8 8 8 9 10 11 12 13 12 12 11 10 10 9 9 9 9 9 9 8 8 8 9 9 9 10 11 12 13 14 14 15 15 15 14 14 15 15 15 15 16 16 17 18 18 18 17 17 15 14 12 11 10 9 8 7 7 7 7 7 7 7 7 6 7 7 8
18 18 17 16 15 15 15 15 14 14 15 15 14 13 13 13 12 11 10 9 8 9 10 11 12 13 13 13 12 11 10 10 10 9 9 9 9 8 8 8 8 9 9 10 10 12 13 14 14 15 15 15 15 14 15 15 16 16 16 17 18 18 18 17 16 15 14 12 10 9 9 8 8 7 7 7 7 7 7 6 6 6 6 7 7
19 19 19 18 17 16 15 15 15 15 15 15 15 14 13 14 14 13 12 10 9 9 9 10 11 12 13 13 12 11 11 10 10 9 9 9 8 8 8 8 8 8 9 9 10 11 12 13 14 15 15 15 15 15 15 16 17 17 17 18 18 18 18 17 16 14 13 11 10 9 8 8 7 8 8 8 8 8 7 7 6 5 6 6 7
19 19 20 19 18 17 16 15 15 15 15 15 15 15 15 15 15 14 13 12 11 10 9 10 10 11 11 12 12 12 11 10 10 9 9 9 8 8 8 8 8 8 8 9 9 10 11 12 13 14 15 16 16 16 17 17 17 18 18 18 17 17 17 16 15 14 12 11 10 9 9 8 8 8 7 8 9 9 9 8 7 6 6 6 7
19 19 20 20 19 17 15 15 15 15 15 15 16 16 16 15 15 15 15 14 13 11 10 10 11 11 11 11 12 12 12 11 10 10 10 9 9 8 8 8 7 7 7 7 8 9 10 11 12 13 15 16 16 16 17 17 17 17 17 16 16 15 15 14 13 12 11 10 10 9 9 9 9 8 7 8 9 10 10 9 8 7 7 7 8
20 20 20 20 19 16 15 15 15 15 15 16 16 16 17 17 16 16 16 15 14 13 12 12 11 11 11 11 12 12 12 11 11 10 10 10 9 8 8 7 7 7 7 7 7 8 9 10 11 12 13 14 15 15 16 16 15 15 15 14 14 13 13 12 11 11 10 10 9 9 9 10 9 9 8 9 9 10 11 10 9 8 7 8 9
20 20 20 20 19 17 17 16 16 16 16 16 17 17 17 18 17 17 16 15 15 14 14 13 13 12 12 12 12 12 12 12 11 11 10 10 9 9 8 8 8 8 7 7 7 8 8 9 10 11 12 13 13 14 14 14 14 14 13 12 12 11 11 11 10 10 10 10 10 9 10 10 9 9 9 9 10 10 11 10 9 8 8 8 9
20 20 20 20 19 19 18 19 18 18 18 17 17 17 17 18 18 18 17 16 15 15 14 14 13 13 13 12 12 12 12 12 12 11 10 10 9 9 8 8 8 8 7 7 7 7 8 8 9 10 10 11 11 12 12 12 12 12 12 11 11 11 10 10 10 10 10 10 10 10 10 10 10 10 9 9 10 10 11 10 10 9 9 9 9
21 19 19 20 20 20 20 21 21 19 19 18 18 17 18 18 19 19 18 17 16 16 15 14 14 14 14 13 13 13 13 12 12 12 11 10 10 9 9 9 9 8 8 7 8 8 8 8 9 9 10 10 11 11 11 11 11 11 11 11 10 10 10 10 10 10 11 11 11 10 10 10 10 10 10 9 9 9 10 11 11 11 11 10 9
22 20 19 20 21 20 21 22 22 20 19 19 18 18 18 18 19 19 19 19 17 16 16 15 15 15 15 14 14 14 14 13 12 12 12 11 11 11 11 11 11 10 10 9 9 9 9 9 9 9 10 10 11 11 10 11 11 11 11 10 10 10 10 10 10 10 11 11 11 11 11 11 11 10 10 10 9 9 9 10 10 11 11 10 10
22 21 20 21 21 21 22 22 22 21 20 20 20 19 19 19 19 19 19 19 19 18 17 16 16 15 15 15 15 15 14 14 13 13 12 12 12 13 13 13 12 12 11 11 11 10 10 10 10 10 10 11 11 11 11 10 11 11 11 11 10 10 11 10 10 10 10 10 11 11 10 10 11 11 11 10 9 9 9 9 9 9 10 10 10
23 24 23 23 23 23 23 22 22 22 22 22 21 21 20 19 18 18 19 19 19 18 18 18 17 16 16 16 15 15 15 14 14 14 14 13 14 14 13 13 13 13 13 12 12 11 11 11 11 11 11 11 11 11 11 11 11 11 11 11 10 10 11 11 11 10 10 10 10 10 10 10 10 11 11 10 10 9 9 8 8 8 9 10 10
23 25 24 23 23 24 23 23 22 23 23 23 22 21 21 20 18 18 18 18 18 18 18 18 18 17 16 16 16 15 15 15 15 15 15 14 14 14 13 13 13 12 12 12 12 12 12 12 11 11 12 12 12 12 12 11 11 11 11 11 11 10 10 11 11 11 10 10 10 10 10 10 10 11 11 11 10 10 9 9 8 8 9 10 10
22 24 23 23 23 24 24 23 23 24 24 24 24 23 22 21 20 18 18 17 17 18 18 19 19 18 18 17 16 16 16 16 16 16 16 16 15 14 14 13 13 12 12 12 12 12 12 12 12 11 12 12 12 12 12 12 11 11 11 11 10 10 10 10 11 11 11 11 11 11 11 11 11 11 11 11 11 10 10 10 10 10 10 10 11
21 21 21 22 23 24 23 24 24 24 24 25 25 25 24 23 22 20 19 18 18 18 19 19 20 20 20 19 18 17 17 17 17 17 17 17 16 16 15 14 13 12 12 11 11 12 12 12 12 12 12 12 12 12 11 11 11 10 10 10 9 9 10 10 10 11 11 11 11 11 11 12 12 12 12 12 12 11 11 11 11 11 11 12 12
22 22 21 22 24 24 24 24 23 23 24 24 25 26 26 25 24 23 22 21 20 19 19 20 20 20 21 21 20 19 19 19 19 18 18 18 18 17 16 16 15 14 13 13 12 12 12 12 12 12 12 12 12 12 11 11 10 10 10 10 9 9 9 9 9 10 10 11 11 11 12 12 13 13 13 13 13 13 13 12 12 12 12 13 13
24 23 23 24 25 25 25 24 24 24 25 25 25 25 26 26 26 25 25 24 23 22 21 21 20 20 21 21 22 22 21 21 21 20 20 19 19 18 18 17 17 16 16 15 15 14 14 13 13 13 13 13 12 12 11 11 10 11 11 10 10 10 10 10 9 9 10 10 10 10 11 12 13 13 13 14 14 14 14 14 14 14 14 14 14
24 24 24 25 27 27 25 24 24 25 26 25 25 25 26 26 27 27 27 27 26 25 24 23 22 21 21 21 22 22 23 23 23 23 22 21 20 19 19 19 19 18 18 17 17 16 16 15 14 14 13 13 13 12 11 11 11 11 11 11 11 10 10 10 10 10 10 10 10 10 10 11 12 12 12 13 13 14 14 15 15 15 15 15 14
24 25 25 25 27 27 27 26 25 26 27 26 25 25 25 26 26 27 27 27 26 26 26 26 25 24 23 22 22 22 23 24 25 25 24 23 22 21 21 20 20 20 19 19 19 18 18 17 17 16 16 15 14 14 13 12 13 13 12 12 12 11 11 11 11 11 11 12 11 11 11 12 12 12 11 12 13 13 14 14 14 14 14 14 14
24 24 24 24 25 26 27 26 26 27 27 26 26 26 25 25 26 26 26 26 26 27 27 28 28 27 25 24 23 23 24 25 25 26 25 24 24 23 23 22 21 21 21 20 20 20 20 19 19 19 18 18 17 16 16 15 15 15 14 14 13 13 13 13 13 13 13 13 13 13 13 14 14 13 13 13 13 14 14 14 14 13 13 13 14
24 25 24 24 24 24 24 24 25 27 28 28 27 27 27 26 27 27 27 27 27 27 27 27 28 28 28 27 26 25 25 26 26 26 26 25 25 25 24 23 23 23 22 22 22 21 21 21 21 20 20 19 19 18 18 17 17 17 16 16 15 15 15 15 15 15 15 15 15 15 16 16 16 15 15 15 15 16 16 16 15 15 14 14 14
25 25 24 23 23 23 23 23 24 26 27 28 28 28 29 29 30 29 29 28 28 26 26 27 27 27 28 29 29 28 28 27 27 27 27 26 26 26 25 25 24 24 24 24 23 23 23 23 22 22 21 21 20 20 19 18 18 18 18 17 16 16 16 16 16 16 16 17 17 17 17 18 18 18 18 18 17 17 18 17 17 17 16 16 16
26 25 24 23 22 22 22 22 24 25 26 26 28 29 30 31 32 32 30 29 28 27 27 27 26 26 26 27 29 30 30 30 29 29 28 27 27 26 26 26 25 25 25 25 25 25 25 24 24 23 22 22 21 21 20 19 19 19 19 19 18 17 17 17 16 17 17 17 17 18 18 18 19 19 20 19 19 19 19 19 18 18 18 18 18
29 28 26 25 23 22 22 21 22 24 26 26 26 28 28 29 31 31 31 30 29 28 28 28 27 27 27 27 28 29 30 31 31 31 30 29 28 27 27 27 27 27 27 27 27 27 27 26 26 25 24 23 23 22 21 21 20 21 20 20 20 19 18 18 18 18 18 18 18 19 19 19 19 20 20 20 20 20 20 21 20 20 20 20 20
30 29 28 27 26 24 23 22 21 22 24 25 24 25 26 27 28 29 30 30 30 30 30 30 31 30 29 29 29 29 29 29 30 31 31 32 31 30 29 28 28 28 28 28 29 28 28 28 27 27 26 25 24 23 23 23 22 22 22 21 21 21 20 20 20 20 20 19 19 20 20 20 20 20 20 20 20 20 20 21 21 20 20 20 20
31 30 29 28 28 27 27 25 23 22 23 24 23 23 23 25 26 28 30 32 32 32 32 33 33 33 32 32 31 30 29 28 29 30 31 33 34 33 32 31 31 30 30 30 30 30 29 29 28 28 27 26 25 25 26 25 24 24 24 23 23 23 23 23 22 22 22 22 21 21 22 22 21 21 20 20 20 20 20 20 20 20 20 19 19
32 31 30 30 30 30 30 29 27 25 25 25 25 24 23 24 25 27 30 32 34 34 35 35 35 35 35 34 34 33 33 32 32 31 32 34 36 36 35 34 33 33 32 32 31 31 31 30 29 29 28 26 26 27 28 27 26 26 26 25 25 25 25 25 24 24 24 24 24 23 23 23 22 21 21 20 20 20 20 20 20 20 20 19 19
30 30 30 31 31 32 32 32 32 30 29 28 28 28 28 27 27 27 29 30 33 35 36 36 36 37 36 36 36 37 37 36 37 36 36 36 36 35 35 35 35 35 34 34 34 33 32 31 31 30 28 27 28 29 29 28 28 27 27 27 27 26 27 27 26 26 26 25 25 25 25 24 23 22 21 21 20 19 19 19 19 19 20 19 19
27 28 30 31 32 33 34 34 34 34 33 32 32 32 32 31 30 30 30 30 31 33 36 38 38 38 37 37 37 37 36 36 37 38 38 39 39 38 36 36 37 36 35 35 35 35 35 34 33 31 29 29 30 30 30 29 29 28 28 27 27 27 28 27 27 27 27 26 26 26 26 26 25 24 23 22 21 20 20 20 20 20 20 20 20
28 29 31 32 32 33 35 35 36 36 35 35 34 34 33 33 33 33 32 31 30 32 35 38 39 39 38 38 37 36 35 34 34 35 36 38 41 43 40 39 39 40 39 39 37 36 36 36 35 32 31 31 31 31 30 30 29 28 28 27 27 28 28 28 28 28 28 28 27 27 27 27 26 25 25 25 24 22 22 21 21 22 22 22 22
31 32 33 34 33 33 34 35 36 36 36 35 34 34 33 33 34 34 34 34 32 32 33 34 36 38 39 38 37 37 36 35 34 34 35 35 38 41 41 41 42 43 43 42 40 37 38 38 36 34 33 33 32 31 31 31 30 30 29 28 28 28 28 28 29 29 30 29 29 28 28 27 26 26 27 27 26 25 25 23 23 23 23 23 24
34 34 35 36 35 34 34 35 35 35 35 34 33 32 32 32 33 34 35 35 35 33 32 32 33 35 36 35 34 34 35 35 34 34 34 34 35 36 37 39 43 46 46 44 40 38 37 37 36 36 35 35 35 33 33 32 31 31 30 30 30 30 30 30 30 31 31 30 30 29 29 28 27 28 29 29 28 28 27 26 24 24 23 24 25
38 38 38 38 37 35 34 35 35 34 34 34 33 31 31 32 33 34 35 36 36 34 33 32 32 33 33 30 28 28 30 32 31 31 31 30 30 32 33 35 37 43 47 45 41 39 38 36 36 36 36 36 36 35 34 33 33 33 32 32 32 32 32 33 33 32 32 32 31 30 30 30 29 29 30 30 30 30 29 28 27 25 24 24 25
42 42 41 40 39 37 36 35 35 34 33 33 33 32 31 32 32 32 33 35 36 35 34 33 33 33 33 32 29 26 26 28 28 28 26 24 23 24 26 25 24 29 38 42 41 39 39 37 37 36 36 36 36 36 36 35 34 34 33 33 33 33 34 34 34 34 34 33 32 31 31 32 32 31 30 30 31 31 31 30 29 28 26 25 26
43 44 43 43 41 38 36 35 35 34 33 33 32 31 31 31 32 32 32 33 34 34 33 32 32 31 31 33 33 30 28 27 27 26 25 23 21 20 19 18 16 15 22 31 35 38 39 38 37 36 35 35 35 35 35 35 35 35 34 34 35 36 36 35 35 35 35 34 33 32 31 33 35 34 32 31 31 31 32 32 31 30 28 27 27
45 45 44 43 42 40 37 36 36 35 34 34 33 31 30 30 32 32 33 33 33 33 34 35 34 31 29 30 32 32 29 28 28 28 26 25 24 22 20 21 19 16 17 21 24 28 32 35 36 36 36 36 36 36 36 36 36 36 35 35 36 36 36 36 36 37 37 37 36 35 33 34 36 37 35 34 33 32 33 33 33 32 31 30 30
47 47 47 45 43 40 38 38 38 37 36 35 35 33 32 31 31 32 32 32 32 33 35 36 35 33 31 31 31 31 30 29 29 29 29 29 28 26 25 24 23 23 22 21 20 20 22 24 27 30 32 33 33 33 34 34 34 34 35 36 37 37 37 37 37 37 38 39 40 39 37 36 37 37 37 36 35 34 34 34 34 34 34 33 33
45 47 49 48 45 43 41 41 41 39 38 37 36 35 34 33 33 32 31 30 30 31 33 34 34 33 32 31 30 28 28 30 31 31 31 32 31 28 26 25 24 24 23 22 21 21 20 19 19 21 23 23 24 24 24 25 27 29 32 33 34 34 35 36 36 37 38 39 40 40 38 37 37 38 38 38 37 36 36 36 36 36 36 35 36
43 43 47 50 49 46 45 45 44 41 40 39 37 36 35 34 34 33 32 32 31 30 31 32 32 32 32 31 30 29 28 30 31 31 29 30 31 28 26 27 27 26 24 22 22 22 20 19 20 20 19 22 24 24 23 24 25 27 27 27 27 27 27 28 30 32 34 35 36 37 37 37 38 38 38 39 39 39 39 38 38 38 37 36 36
46 42 41 46 49 49 48 46 45 43 42 41 39 38 37 35 34 34 33 33 33 32 32 32 32 32 31 31 31 32 31 30 30 29 28 29 29 29 28 28 28 28 28 28 28 27 25 23 24 24 25 27 28 27 26 27 28 29 30 30 29 28 28 27 27 27 28 28 29 30 32 34 35 37 38 39 40 40 40 40 40 39 38 37 37
49 47 42 40 42 46 48 48 45 44 44 42 41 40 39 37 36 35 34 34 33 33 33 33 33 33 32 31 32 32 32 32 31 31 31 31 30 30 30 29 27 27 28 29 29 30 29 27 27 28 30 31 30 29 29 29 29 30 31 31 32 32 32 32 31 30 30 29 29 29 29 30 32 34 36 38 39 39 40 40 40 39 39 38 38
46 48 48 43 40 41 44 46 46 45 45 44 43 42 41 40 38 38 37 36 35 34 34 34 34 34 33 32 32 32 32 33 33 34 34 34 34 33 33 33 32 31 30 29 28 29 30 31 31 32 33 33 32 32 32 32 32 31 31 31 31 31 31 31 31 31 32 33 33 33 33 33 33 34 35 36 37 38 39 39 39 40 40 40 40
45 48 49 49 47 45 44 44 44 44 44 44 44 44 43 42 42 41 40 40 39 38 37 37 37 36 36 35 34 34 33 33 33 34 34 34 34 33 33 34 34 35 35 35 34 33 34 35 35 35 35 35 34 34 34 34 33 33 33 32 32 32 32 32 32 32 33 34 35 35 36 36 37 37 38 38 39 39 39 40 40 40 40 41 42
44 47 48 47 48 50 50 48 46 46 46 47 47 46 46 46 45 44 44 43 43 42 41 41 41 40 40 39 38 37 36 35 35 34 34 34 34 34 33 33 34 34 36 36 37 37 37 37 36 36 36 36 36 36 37 36 36 36 36 36 36 36 36 36 36 36 36 37 37 37 38 38 38 39 40 40 41 41 42 42 42 43 43 43 44
39 41 42 42 42 45 47 48 48 48 49 49 49 48 48 47 47 47 46 46 45 44 44 44 44 44 44 43 43 42 41 40 39 38 38 37 37 37 36 36 36 36 36 36 37 37 38 38 38 38 38 38 38 38 39 39 40 40 40 40 40 40 40 40 40 40 40 40 40 41 41 41 41 41 42 43 43 43 44 44 44 45 45 46 46
Wind_Direction
186 180 178 177 172 173 174 174 177 178 176 173 165 153 143 135 129 129 136 143 145 143 139 134 132 130 126 123 120 117 115 115 117 117 117 116 113 110 109 107 106 107 108 109 110 113 118 122 125 126 126 128 130 133 134 137 139 141 143 144 144 145 146 146 145 146 148 152 156 158 156 150 145 142 136 131 126 127 128 123 121 124 127 132 133
187 183 180 181 178 178 179 176 177 178 178 178 173 163 154 147 141 136 138 146 151 150 147 144 141 139 136 132 127 123 120 119 119 119 119 118 117 114 112 110 108 108 110 112 114 116 118 123 125 126 126 127 129 131 133 135 138 141 142 142 142 144 145 145 146 148 151 156 159 159 155 151 148 145 139 133 129 129 131 129 128 130 132 138 143
189 187 185 185 184 183 181 177 176 178 180 182 181 174 163 155 149 146 143 147 154 157 155 152 149 147 144 139 134 128 124 123 121 121 120 119 118 117 115 112 111 111 113 115 117 118 120 123 126 127 127 127 129 130 132 135 138 140 141 140 141 143 145 146 148 151 155 158 160 157 153 151 149 145 142 138 134 135 138 137 136 137 141 144 148
192 191 189 188 187 186 183 180 178 180 182 182 184 182 172 163 158 156 152 148 153 160 162 159 154 150 147 143 140 135 130 127 124 122 121 120 120 119 117 116 115 116 117 118 120 122 124 127 130 130 129 128 130 131 133 136 138 139 139 138 141 144 147 149 151 154 157 159 158 156 153 151 149 146 145 141 137 141 145 147 146 145 151 152 154
196 194 193 191 189 188 185 183 182 181 180 181 185 186 180 173 169 164 156 150 150 157 162 164 160 154 150 148 146 143 139 134 131 128 125 124 124 123 122 120 120 120 121 122 123 125 129 132 135 135 134 133 133 134 135 137 139 139 139 140 144 147 150 152 154 156 157 158 157 156 154 152 150 149 148 144 141 146 152 154 154 154 159 163 167
199 199 197 193 190 189 187 186 185 182 178 178 184 188 184 179 177 170 159 155 154 155 159 164 167 164 160 158 157 155 151 145 141 137 133 130 130 130 128 126 124 124 124 125 126 128 132 137 139 140 140 139 138 138 138 139 141 141 142 144 147 149 151 153 155 156 157 159 158 157 156 154 155 153 152 150 147 151 156 159 160 162 168 174 180
200 203 202 196 192 192 190 187 187 183 178 178 184 188 186 183 180 175 168 164 162 161 161 164 169 172 171 170 168 164 160 156 152 147 142 138 137 136 134 132 129 127 128 128 129 132 135 139 141 142 143 143 142 142 141 141 143 144 145 147 149 150 152 154 155 156 158 161 161 161 159 159 161 160 160 159 155 156 161 166 170 171 175 182 191
199 204 204 199 197 196 193 189 187 184 181 180 183 187 188 185 181 179 177 175 171 169 167 166 169 175 178 177 175 171 167 164 161 158 154 149 146 143 138 136 134 131 131 131 132 134 137 140 142 144 145 146 146 146 145 146 146 147 147 149 151 151 152 154 156 158 160 162 165 166 166 168 170 170 171 170 165 165 170 177 181 183 183 184 192
201 203 203 200 200 200 195 190 188 187 185 183 184 185 188 188 184 183 183 182 180 174 171 171 171 176 181 181 181 179 176 173 169 166 162 159 155 150 145 142 138 135 134 133 134 136 138 141 144 146 148 149 149 149 150 150 149 149 150 150 152 153 155 157 159 161 164 167 170 171 175 179 182 184 184 181 176 176 180 186 193 196 194 190 193
203 206 205 202 202 202 196 192 190 189 187 186 187 186 189 190 187 186 187 186 186 180 175 175 173 175 180 182 183 185 184 181 177 173 169 165 161 157 152 149 146 143 139 137 137 139 141 143 146 148 150 150 150 151 151 151 150 151 152 152 155 158 161 163 164 166 171 175 179 181 184 188 194 200 199 194 189 186 188 193 201 203 202 206 205
205 206 207 205 203 201 196 195 193 190 190 190 191 190 192 192 188 189 191 189 189 184 180 179 176 174 177 180 184 188 189 187 183 180 176 172 168 163 159 156 154 151 147 144 142 143 145 147 150 151 152 151 151 152 151 152 153 154 155 157 160 164 168 171 172 174 178 183 190 194 196 199 203 208 212 210 204 199 197 198 206 209 204 211 214
207 205 205 205 204 202 199 200 197 192 193 194 194 194 195 194 191 192 193 192 191 189 187 184 179 176 175 178 182 187 191 191 190 187 182 177 172 168 166 165 164 162 159 157 152 151 152 154 156 156 155 154 154 155 155 157 159 161 163 165 169 173 176 179 181 185 188 195 203 208 210 212 213 214 218 221 217 212 208 205 211 217 214 216 219
210 205 203 202 202 202 202 203 201 197 196 197 197 198 199 199 196 195 195 195 194 194 194 190 183 180 178 178 181 186 192 195 196 194 189 184 177 174 174 173 174 173 170 168 165 163 162 162 164 164 162 161 161 161 163 165 168 170 173 176 181 185 188 190 194 198 201 206 215 222 223 222 223 224 224 225 224 223 221 218 217 221 226 230 229
213 208 202 200 201 202 204 206 205 201 199 198 199 200 201 202 201 199 199 198 196 197 200 197 190 185 182 181 181 183 190 195 199 199 197 193 187 182 183 184 185 183 179 177 176 175 174 173 174 174 174 173 172 172 174 177 181 184 185 188 193 198 202 204 208 213 216 218 222 230 234 234 233 233 231 229 228 229 231 231 228 227 231 238 240
213 211 203 199 199 201 206 210 209 206 203 200 201 202 202 204 204 204 204 203 201 200 202 203 199 192 186 186 185 183 187 193 198 201 202 202 199 195 196 197 196 192 188 189 189 187 186 186 187 187 187 186 186 187 189 192 197 200 202 203 207 212 216 218 222 226 229 232 233 234 237 239 241 242 242 240 236 233 233 236 237 236 238 244 251
210 212 208 201 198 200 206 211 213 210 207 205 203 204 205 205 206 207 207 206 206 205 205 206 206 201 193 190 190 188 187 190 193 198 202 205 206 205 205 205 203 199 196 196 197 197 196 195 195 197 199 199 200 201 203 205 210 215 218 220 222 226 229 231 235 237 239 241 243 243 242 242 244 246 249 252 253 248 242 243 244 245 248 253 259
209 209 211 205 197 198 205 211 215 214 212 211 207 207 209 208 208 209 210 209 208 208 208 208 210 208 200 194 193 194 193 191 191 193 198 202 205 207 207 206 204 202 201 201 200 202 204 203 202 205 207 209 211 212 214 217 221 226 230 232 234 237 241 243 244 245 245 245 247 249 249 248 248 249 252 256 259 260 259 260 260 260 263 266 270
215 209 208 207 199 197 202 208 213 216 216 216 213 211 211 212 211 211 212 212 210 210 210 212 213 212 207 201 198 198 198 197 196 195 196 199 202 204 204 205 204 203 203 204 203 205 209 210 210 212 215 217 220 222 224 227 231 235 239 242 245 247 250 251 252 251 250 249 250 251 253 253 253 254 257 260 263 267 270 273 275 275 275 276 278
227 217 208 207 204 200 201 205 210 215 218 220 219 217 215 215 215 214 215 214 212 212 212 214 216 216 214 208 203 202 202 202 202 200 200 201 203 202 201 202 204 204 205 206 206 207 211 214 216 219 222 225 228 230 232 235 238 241 245 249 251 254 256 257 258 257 255 253 253 254 256 257 257 256 257 260 266 271 275 277 279 279 279 278 279
238 227 213 211 210 206 204 205 209 213 217 221 223 221 219 217 217 218 218 217 214 214 213 214 216 218 218 215 210 207 206 208 207 206 206 206 206 205 202 202 203 205 208 209 209 210 212 214 218 222 225 228 231 234 236 239 242 245 248 250 252 254 256 258 260 261 260 258 256 256 255 256 258 259 258 259 263 268 272 274 276 277 277 278 279
238 232 222 219 217 213 211 210 212 214 216 219 223 224 223 220 219 220 221 219 217 216 217 216 215 216 218 218 215 212 211 212 213 211 210 210 209 208 207 206 204 205 209 211 213 215 216 216 216 220 224 228 230 233 236 239 243 246 248 250 252 253 254 256 259 262 262 261 260 259 257 256 257 260 262 264 266 267 269 271 273 275 277 279 280
233 232 230 227 223 219 219 218 217 217 217 219 221 224 226 224 221 221 222 222 221 219 220 220 218 217 217 218 218 216 215 216 217 216 213 212 211 210 210 210 208 207 209 212 214 215 218 219 220 221 222 225 228 230 233 237 241 244 246 248 250 251 253 256 258 261 262 262 262 263 264 263 262 263 264 266 268 269 271 273 274 276 278 280 282
231 231 231 230 226 223 222 223 222 221 221 221 221 222 226 226 224 223 223 224 224 223 223 223 222 221 219 220 220 219 217 218 220 220 218 215 213 211 212 213 213 212 211 212 213 214 216 218 220 223 223 225 226 227 230 234 238 243 246 247 247 249 251 254 257 260 262 264 265 265 267 269 269 270 269 270 271 271 272 273 274 276 277 279 281
234 234 233 230 228 226 225 225 225 226 226 225 224 223 224 226 226 225 225 226 227 227 227 226 226 225 223 223 223 222 221 221 221 222 222 220 217 214 213 215 215 216 215 215 216 216 217 218 220 223 224 226 228 228 229 233 236 241 244 247 249 250 251 253 255 258 261 265 266 266 266 269 273 276 277 278 277 276 275 274 274 275 276 278 281
237 239 239 235 232 229 228 227 227 229 231 230 229 228 227 228 228 228 228 227 228 230 231 231 230 228 226 226 226 226 226 225 225 225 225 223 222 219 217 217 218 218 219 219 220 220 221 221 222 223 224 226 228 230 231 234 237 239 241 244 248 251 253 255 255 257 259 261 263 264 264 264 268 272 275 279 281 280 279 278 277 277 278 280 281
234 238 239 239 236 234 233 231 229 231 235 234 233 233 232 231 231 232 231 230 229 230 232 233 234 233 231 229 228 229 231 231 230 230 230 228 227 225 222 220 221 221 222 222 223 223 224 224 225 225 225 225 227 228 230 232 236 239 241 243 246 249 253 255 256 257 257 258 258 259 261 262 263 265 267 269 272 275 276 277 278 279 279 280 281
231 235 236 237 237 240 242 239 234 232 234 235 235 235 234 233 232 232 231 231 230 230 231 233 235 236 236 234 231 230 232 234 234 234 234 233 232 232 229 226 225 225 225 225 226 227 227 227 227 227 227 227 228 229 230 231 234 238 240 243 245 248 251 253 255 257 257 258 258 258 259 260 261 263 263 264 264 266 268 270 272 273 274 275 276
228 233 236 237 239 242 247 248 242 237 235 236 237 237 236 235 234 233 232 231 231 231 232 233 234 236 239 239 237 234 233 234 236 236 236 234 234 235 234 233 231 230 229 230 230 231 231 231 230 230 230 230 231 232 233 234 236 238 241 243 245 247 249 251 254 256 257 258 259 259 260 261 262 262 263 263 263 264 264 265 266 267 267 267 267
223 227 231 235 238 242 247 250 248 244 242 240 240 241 242 239 235 233 233 233 233 234 235 235 236 236 237 240 241 239 237 235 236 237 238 236 235 235 236 236 235 234 233 233 233 234 234 235 235 235 234 234 234 235 236 237 239 241 243 245 247 249 250 252 254 256 259 260 261 262 262 263 265 265 266 266 267 267 266 266 265 265 265 266 266
220 223 227 231 236 241 246 250 249 246 245 244 244 245 247 244 238 235 235 234 233 235 236 238 239 237 235 237 240 241 240 238 237 238 239 239 238 237 236 237 237 237 236 236 236 236 237 238 239 239 238 238 238 239 239 240 241 244 246 249 251 254 255 257 259 260 262 263 264 266 266 267 267 267 269 270 270 270 270 270 269 268 268 269 270
223 224 227 231 235 241 247 251 250 246 244 245 245 245 246 245 242 242 242 239 236 236 238 239 241 241 238 237 238 241 242 241 240 239 240 241 240 239 238 238 238 239 239 238 238 238 238 239 240 242 242 242 242 242 241 242 244 246 248 251 255 257 259 261 262 262 263 264 265 266 268 268 268 268 269 271 272 274 275 276 276 275 274 273 273
229 229 230 233 237 242 246 249 249 247 245 244 244 244 246 247 247 247 247 245 241 239 239 240 243 244 244 242 241 242 243 244 244 242 241 242 241 239 239 238 239 239 240 240 240 240 240 240 241 242 243 244 244 244 244 244 246 247 249 252 254 257 259 261 262 263 263 263 263 264 266 267 268 269 270 271 274 276 277 278 279 280 279 278 277
234 235 235 237 239 243 246 247 247 246 245 245 245 246 247 250 252 252 250 248 245 243 242 243 244 245 245 245 244 243 243 244 244 243 241 241 241 240 239 239 239 240 240 241 242 242 242 242 242 243 244 245 245 245 245 245 246 248 249 251 253 254 256 258 259 261 262 263 263 263 264 265 266 268 269 270 272 276 278 280 280 281 281 281 280
238 238 239 240 241 243 245 245 246 245 245 245 246 247 249 251 254 256 256 254 250 246 245 244 245 245 246 246 246 246 245 245 245 245 244 243 243 243 242 242 241 241 241 242 243 243 243 243 243 243 244 245 245 246 247 246 246 247 249 251 252 253 255 256 257 258 259 261 262 263 264 265 266 266 267 267 268 271 274 277 278 279 280 281 281
235 235 236 238 239 240 241 243 244 245 245 245 246 248 250 252 255 258 259 258 254 248 244 244 245 246 246 246 247 248 248 247 248 249 249 247 245 243 242 242 242 241 240 240 241 242 243 242 243 242 243 244 246 246 247 248 247 248 249 251 253 254 256 257 258 259 259 259 260 262 264 265 266 267 267 267 266 266 268 270 273 275 276 277 277
234 235 238 238 238 239 240 241 243 244 245 245 246 247 250 252 254 256 257 257 255 249 244 242 243 243 244 244 245 247 248 248 247 248 250 249 247 244 240 240 241 240 239 239 238 238 240 241 242 242 241 243 245 246 248 250 250 251 251 252 253 255 257 259 260 261 260 260 260 261 263 264 266 268 268 267 265 265 264 265 268 271 273 275 275
237 239 241 241 239 239 239 240 241 243 245 245 245 246 248 251 253 254 254 254 253 250 245 241 241 242 241 242 244 246 247 247 246 245 246 246 246 245 242 241 242 241 239 240 238 236 237 240 241 241 241 242 243 244 246 249 251 252 253 254 254 256 257 258 259 260 260 260 260 262 263 265 267 269 268 267 266 265 264 264 265 268 272 275 277
240 241 242 242 240 239 240 240 240 241 242 243 243 243 245 248 250 251 251 250 248 248 246 243 243 242 240 242 246 246 246 246 245 245 245 244 246 247 246 246 247 245 242 242 241 239 239 240 241 241 241 241 241 242 243 246 248 250 252 253 254 255 256 256 257 258 259 260 262 263 265 267 268 268 269 270 269 268 267 266 266 268 270 274 277
240 240 242 243 241 240 240 240 239 239 239 240 240 240 240 243 246 248 248 247 245 245 244 244 244 243 241 242 246 245 243 241 240 240 242 244 247 248 247 248 250 247 244 242 241 241 242 241 241 241 241 241 241 241 241 243 245 248 250 252 254 256 257 257 257 257 258 260 261 263 266 267 267 267 267 269 269 269 269 269 268 267 267 270 273
240 240 241 243 243 241 241 239 238 238 239 239 239 239 238 238 241 243 245 245 244 243 243 243 244 244 243 242 244 246 244 238 236 237 239 241 245 247 245 247 252 250 245 242 240 241 243 243 241 241 241 242 242 241 242 243 244 247 250 254 256 258 258 259 258 257 257 258 260 262 265 266 266 265 265 266 267 268 269 268 268 267 266 266 268
240 240 241 242 244 243 241 238 236 236 237 238 239 239 238 238 239 240 242 243 243 243 243 242 242 244 245 244 244 246 247 244 243 245 243 241 243 245 243 247 253 250 243 241 241 242 243 243 242 241 241 243 245 244 242 242 245 248 252 256 259 260 260 260 259 257 256 258 260 262 263 264 265 264 263 263 264 266 267 268 268 268 267 266 267
241 241 240 241 243 243 240 236 234 233 233 234 236 237 237 237 238 239 240 241 242 243 242 242 243 247 249 248 247 248 251 252 252 252 250 247 247 250 250 252 254 252 250 250 248 244 242 241 241 240 241 243 245 245 244 244 247 251 255 258 260 261 260 259 258 258 258 259 261 263 263 263 262 262 261 262 262 264 266 267 268 269 269 269 269
239 238 237 237 237 236 235 232 231 231 231 232 233 234 234 236 237 238 239 240 240 242 243 244 246 248 249 250 252 253 253 253 254 255 256 256 256 256 256 256 256 254 253 255 255 252 247 243 240 237 236 238 239 239 240 242 244 247 250 254 258 259 259 259 258 259 259 260 261 262 264 263 262 259 258 259 261 262 264 266 267 269 271 272 273
238 234 231 230 229 228 227 227 228 228 229 231 232 233 234 235 238 239 240 241 241 242 244 246 247 247 247 249 251 249 246 247 251 255 257 258 257 256 254 253 253 252 252 253 254 254 255 256 255 251 247 247 247 245 244 245 246 245 245 246 249 252 255 257 258 257 257 259 260 262 263 264 263 260 257 257 259 262 264 265 266 269 270 272 272
241 237 229 223 222 222 222 223 225 226 228 230 231 232 233 234 237 240 242 243 244 244 246 248 248 248 247 246 246 246 243 244 249 253 252 252 253 252 249 249 250 249 248 248 249 250 251 256 261 261 258 258 259 259 258 257 256 253 250 249 250 252 254 257 257 255 254 256 259 261 262 262 262 261 259 258 259 262 264 264 265 267 268 269 270
238 238 230 219 216 217 218 219 222 223 225 228 229 230 232 233 236 239 241 243 244 245 246 248 249 250 249 246 245 246 246 245 246 247 248 249 249 247 246 248 251 251 248 246 247 250 250 249 250 251 251 253 256 259 260 259 257 257 256 257 258 259 260 260 261 259 257 257 258 261 263 263 262 261 261 261 262 263 263 262 263 265 266 267 268
236 237 234 223 214 212 214 217 221 222 224 226 228 228 230 231 233 236 238 239 241 243 245 247 249 249 249 248 247 246 247 245 244 243 244 246 247 246 244 244 247 251 252 251 250 252 251 248 246 247 250 252 253 254 255 255 256 256 256 257 257 257 258 260 261 262 262 262 262 263 265 265 264 262 262 262 263 264 264 264 265 265 266 267 268
240 240 239 235 228 220 215 216 220 222 224 226 228 230 230 231 232 234 236 238 239 241 243 245 247 248 248 248 247 247 246 245 244 244 245 245 246 246 245 244 243 245 247 248 247 247 249 250 249 249 250 252 252 252 251 252 253 255 255 257 257 258 258 260 261 261 262 262 262 263 263 263 263 262 261 261 262 264 265 266 267 268 268 269 270
240 242 242 241 239 234 227 222 222 225 228 230 232 234 235 235 236 237 238 239 240 241 243 244 247 249 249 248 247 247 246 245 245 245 246 246 246 245 245 245 245 244 245 247 248 248 249 251 252 252 253 255 256 257 257 257 258 259 259 260 261 262 262 262 262 262 262 262 262 261 261 261 261 261 261 261 261 262 264 265 266 267 268 269 270
233 238 239 237 235 234 231 229 229 230 231 233 235 236 238 239 240 241 242 243 243 244 245 246 247 248 249 250 249 249 248 247 247 246 246 247 248 249 248 248 248 248 248 249 250 251 252 253 253 254 255 256 258 260 261 262 263 264 264 264 264 265 265 265 264 264 263 263 263 263 262 262 262 262 262 262 262 263 263 264 265 266 267 267 268
233 236 237 235 233 232 231 231 232 232 232 233 235 237 239 240 242 243 244 245 246 247 248 249 249 249 249 250 250 250 250 250 250 250 249 249 250 252 253 253 253 252 252 252 252 253 254 255 256 256 256 257 257 258 259 261 262 263 264 265 265 265 265 265 265 265 264 265 265 265 266 265 265 265 264 264 264 264 265 265 265 265 266 266 267
Height
5931 5931 5932 5933 5934 5934 5935 5936 5937 5938 5938 5939 5939 5940 5940 5940 5940 5940 5940 5940 5940 5941 5941 5941 5942 5942 5943 5944 5944 5944 5945 5945 5945 5946 5946 5947 5947 5947 5947 5947 5947 5947 5947 5948 5948 5949 5949 5950 5951 5951 5952 5952 5953 5954 5955 5956 5957 5958 5959 5960 5961 5963 5964 5965 5966 5966 5968 5969 5970 5971 5972 5973 5973 5974 5975 5975 5976 5976 5976 5976 5977 5977 5977 5978 5979
5931 5931 5932 5933 5934 5934 5935 5936 5937 5938 5939 5940 5940 5940 5940 5941 5941 5941 5941 5941 5941 5941 5942 5942 5943 5943 5944 5944 5945 5945 5946 5946 5947 5947 5947 5948 5948 5948 5948 5949 5949 5949 5949 5949 5950 5950 5951 5952 5952 5953 5953 5954 5955 5956 5957 5958 5959 5960 5961 5962 5963 5964 5965 5966 5967 5967 5969 5970 5971 5972 5973 5974 5974 5975 5975 5976 5976 5976 5977 5977 5977 5978 5978 5978 5979
5930 5931 5932 5933 5934 5935 5935 5936 5937 5938 5939 5940 5941 5941 5941 5941 5941 5942 5942 5942 5942 5942 5942 5943 5943 5944 5944 5945 5946 5946 5947 5947 5948 5948 5949 5949 5949 5949 5949 5950 5950 5950 5951 5951 5951 5952 5952 5953 5954 5954 5955 5956 5957 5958 5959 5960 5961 5962 5963 5963 5964 5965 5967 5967 5968 5969 5970 5971 5972 5973 5974 5975 5975 5976 5976 5976 5977 5977 5977 5978 5978 5978 5978 5979 5980
5930 5931 5931 5932 5934 5935 5935 5936 5937 5938 5939 5940 5941 5942 5942 5942 5942 5942 5942 5943 5943 5943 5943 5944 5944 5945 5945 5946 5947 5947 5948 5948 5949 5949 5950 5950 5951 5951 5951 5951 5952 5952 5953 5953 5953 5953 5954 5954 5955 5956 5957 5958 5958 5959 5960 5961 5962 5963 5964 5965 5966 5967 5968 5968 5969 5970 5971 5972 5973 5974 5975 5975 5976 5976 5977 5977 5977 5977 5978 5978 5979 5978 5979 5980 5981
5929 5930 5931 5932 5933 5934 5935 5936 5937 5938 5940 5941 5942 5942 5943 5943 5943 5943 5943 5943 5944 5944 5944 5945 5945 5946 5947 5947 5948 5948 5949 5949 5950 5950 5951 5952 5952 5952 5953 5953 5953 5954 5954 5954 5955 5955 5955 5956 5957 5957 5958 5959 5960 5961 5962 5963 5963 5964 5965 5966 5967 5968 5969 5970 5970 5971 5972 5973 5974 5975 5975 5976 5976 5977 5977 5977 5978 5978 5979 5979 5979 5979 5979 5980 5981
5929 5930 5930 5931 5933 5934 5935 5936 5937 5938 5939 5941 5942 5943 5943 5944 5944 5944 5944 5944 5944 5945 5945 5945 5946 5947 5947 5948 5948 5949 5949 5950 5951 5951 5952 5953 5953 5954 5954 5955 5955 5956 5956 5956 5956 5956 5957 5957 5958 5959 5960 5961 5961 5962 5963 5964 5964 5965 5966 5967 5968 5969 5970 5971 5971 5972 5973 5974 5975 5976 5976 5977 5977 5977 5978 5978 5978 5979 5979 5980 5980 5980 5980 5980 5980
5928 5929 5930 5931 5932 5934 5935 5936 5937 5938 5939 5941 5942 5943 5943 5944 5944 5945 5945 5945 5945 5945 5946 5946 5946 5947 5947 5948 5948 5949 5950 5951 5952 5952 5953 5954 5955 5955 5956 5956 5957 5957 5958 5958 5958 5958 5958 5959 5959 5960 5961 5962 5963 5963 5964 5965 5965 5966 5967 5968 5969 5970 5971 5972 5972 5973 5974 5975 5976 5976 5977 5977 5978 5978 5978 5979 5979 5979 5980 5980 5981 5981 5981 5981 5981
5928 5929 5930 5931 5932 5933 5935 5936 5937 5938 5939 5940 5942 5943 5943 5944 5945 5945 5946 5946 5946 5946 5947 5947 5947 5947 5948 5948 5949 5950 5951 5952 5952 5953 5954 5955 5956 5957 5957 5957 5958 5958 5959 5959 5959 5959 5960 5960 5961 5961 5962 5963 5964 5965 5965 5966 5967 5967 5968 5969 5970 5971 5971 5973 5973 5974 5975 5976 5976 5977 5977 5978 5978 5978 5979 5979 5979 5980 5980 5980 5981 5981 5981 5981 5981
5927 5928 5929 5930 5932 5933 5934 5935 5936 5937 5939 5940 5941 5943 5943 5944 5945 5945 5946 5946 5946 5947 5947 5947 5948 5948 5949 5949 5950 5950 5951 5952 5953 5954 5955 5956 5957 5958 5958 5959 5959 5959 5960 5960 5960 5961 5961 5962 5962 5962 5963 5964 5965 5966 5967 5967 5968 5968 5969 5970 5971 5972 5972 5973 5974 5975 5975 5976 5976 5977 5977 5978 5978 5978 5979 5979 5979 5980 5980 5980 5981 5981 5981 5981 5981
5926 5927 5929 5929 5931 5932 5934 5935 5936 5937 5938 5940 5941 5942 5943 5944 5944 5945 5946 5946 5947 5947 5948 5948 5948 5949 5949 5950 5951 5951 5952 5953 5954 5955 5956 5957 5958 5958 5959 5960 5960 5961 5961 5961 5962 5962 5962 5963 5963 5964 5964 5965 5966 5967 5968 5968 5969 5969 5970 5971 5972 5973 5973 5974 5974 5975 5975 5976 5976 5977 5977 5978 5978 5978 5979 5979 5979 5979 5979 5980 5980 5980 5981 5981 5981
5926 5927 5928 5929 5930 5932 5934 5935 5936 5937 5938 5939 5940 5941 5943 5943 5944 5945 5945 5946 5947 5948 5948 5948 5949 5949 5950 5950 5951 5952 5952 5953 5954 5955 5956 5957 5958 5959 5960 5961 5961 5962 5962 5962 5963 5963 5964 5964 5964 5965 5966 5966 5967 5968 5969 5969 5970 5971 5971 5972 5973 5974 5974 5975 5975 5975 5975 5976 5976 5976 5977 5977 5978 5978 5978 5979 5979 5979 5979 5979 5979 5979 5980 5980 5980
5925 5926 5927 5928 5930 5932 5934 5935 5936 5937 5938 5939 5940 5941 5942 5943 5944 5944 5945 5946 5947 5948 5948 5949 5949 5949 5950 5950 5951 5952 5952 5953 5954 5955 5956 5957 5958 5959 5960 5961 5962 5963 5963 5963 5964 5964 5964 5965 5965 5966 5967 5967 5968 5969 5970 5970 5971 5972 5973 5973 5974 5975 5975 5975 5976 5976 5976 5976 5976 5977 5977 5977 5978 5978 5978 5978 5978 5979 5979 5979 5979 5979 5979 5979 5979
5924 5925 5926 5928 5929 5931 5933 5934 5935 5936 5937 5938 5939 5940 5941 5943 5943 5944 5945 5946 5947 5948 5948 5949 5949 5949 5950 5950 5951 5952 5953 5953 5954 5955 5956 5957 5958 5959 5960 5961 5962 5963 5963 5964 5964 5965 5965 5965 5966 5967 5968 5968 5969 5970 5971 5971 5972 5973 5973 5974 5975 5976 5976 5976 5976 5976 5976 5976 5977 5977 5977 5977 5977 5977 5977 5978 5978 5978 5978 5978 5979 5979 5979 5979 5979
5922 5924 5926 5927 5928 5930 5932 5933 5934 5935 5936 5937 5938 5939 5941 5942 5943 5944 5945 5945 5946 5947 5948 5949 5949 5949 5950 5950 5951 5952 5953 5954 5954 5955 5956 5957 5958 5959 5960 5961 5962 5963 5964 5964 5965 5965 5966 5966 5967 5968 5968 5969 5970 5971 5972 5972 5973 5973 5974 5975 5975 5976 5976 5977 5977 5977 5977 5977 5977 5977 5977 5977 5977 5977 5977 5977 5977 5977 5978 5978 5978 5978 5978 5978 5979
5921 5923 5925 5926 5927 5929 5931 5932 5933 5934 5935 5936 5938 5939 5940 5941 5942 5943 5944 5945 5946 5946 5947 5948 5949 5949 5950 5950 5951 5952 5953 5953 5954 5955 5956 5957 5958 5959 5960 5961 5961 5962 5963 5964 5965 5966 5966 5967 5968 5968 5969 5970 5971 5972 5972 5973 5973 5974 5975 5975 5976 5976 5977 5977 5977 5977 5977 5977 5977 5977 5978 5978 5978 5978 5977 5977 5977 5977 5977 5977 5978 5978 5978 5978 5978
5920 5922 5924 5925 5926 5927 5930 5932 5933 5934 5935 5936 5937 5938 5939 5940 5941 5942 5943 5944 5945 5946 5947 5948 5949 5949 5949 5950 5951 5952 5952 5953 5954 5955 5956 5957 5958 5959 5960 5960 5961 5962 5963 5964 5965 5966 5967 5967 5968 5969 5970 5970 5971 5972 5973 5973 5974 5974 5975 5975 5976 5976 5976 5977 5977 5977 5977 5977 5977 5977 5977 5977 5977 5978 5978 5977 5977 5977 5977 5977 5977 5978 5978 5978 5978
5919 5921 5922 5924 5925 5926 5928 5930 5932 5933 5934 5935 5936 5937 5938 5939 5941 5942 5943 5943 5944 5945 5946 5947 5948 5949 5949 5950 5951 5951 5952 5953 5954 5955 5956 5957 5957 5958 5959 5960 5961 5962 5963 5964 5965 5966 5967 5967 5968 5969 5970 5971 5971 5972 5973 5973 5974 5974 5975 5975 5975 5976 5976 5976 5976 5977 5977 5977 5977 5977 5977 5977 5977 5977 5977 5977 5977 5977 5977 5977 5977 5977 5977 5977 5978
5917 5919 5920 5922 5923 5925 5927 5929 5930 5932 5933 5934 5935 5936 5937 5939 5940 5941 5942 5943 5944 5945 5946 5947 5948 5949 5949 5950 5950 5951 5952 5953 5953 5954 5955 5956 5957 5958 5959 5960 5961 5962 5962 5963 5964 5965 5966 5967 5968 5969 5970 5970 5971 5972 5972 5973 5973 5974 5974 5974 5975 5975 5975 5976 5976 5976 5976 5976 5977 5977 5977 5977 5977 5977 5977 5977 5977 5977 5977 5977 5977 5977 5977 5977 5977
5915 5916 5918 5920 5922 5923 5924 5927 5928 5930 5931 5933 5934 5935 5937 5938 5939 5940 5941 5942 5943 5944 5945 5946 5947 5948 5949 5949 5950 5951 5952 5952 5953 5954 5954 5955 5956 5957 5958 5959 5960 5961 5962 5963 5964 5964 5965 5966 5967 5968 5969 5970 5971 5971 5972 5972 5973 5973 5973 5974 5974 5975 5975 5975 5975 5975 5976 5976 5976 5976 5976 5976 5976 5976 5977 5977 5977 5977 5977 5977 5977 5977 5977 5976 5976
5913 5915 5917 5918 5919 5921 5922 5924 5926 5928 5929 5931 5933 5934 5936 5937 5938 5939 5940 5941 5942 5943 5944 5945 5946 5947 5948 5949 5949 5950 5951 5952 5952 5953 5953 5954 5955 5956 5957 5959 5960 5961 5962 5963 5963 5964 5965 5965 5966 5967 5968 5969 5970 5970 5971 5971 5972 5972 5973 5973 5973 5974 5974 5974 5974 5974 5975 5975 5975 5975 5976 5976 5975 5975 5976 5976 5976 5976 5976 5976 5976 5976 5976 5976 5976
5911 5914 5915 5916 5917 5919 5921 5922 5924 5925 5927 5929 5931 5933 5934 5935 5936 5938 5939 5940 5941 5942 5943 5943 5944 5945 5946 5947 5948 5949 5950 5951 5951 5952 5952 5953 5954 5955 5956 5958 5959 5960 5961 5962 5963 5963 5964 5964 5965 5966 5967 5968 5968 5969 5970 5970 5971 5971 5972 5972 5972 5973 5973 5973 5973 5974 5974 5974 5975 5975 5975 5975 5975 5975 5975 5975 5975 5975 5975 5975 5975 5976 5976 5976 5976
5910 5912 5913 5915 5916 5918 5919 5920 5922 5923 5925 5927 5929 5931 5932 5933 5934 5936 5937 5938 5939 5941 5941 5942 5943 5944 5945 5946 5947 5948 5949 5949 5950 5951 5951 5952 5953 5954 5955 5956 5957 5958 5959 5960 5961 5962 5963 5963 5964 5965 5966 5966 5967 5968 5969 5969 5970 5970 5970 5971 5971 5972 5972 5972 5973 5973 5973 5973 5974 5974 5974 5974 5974 5974 5974 5974 5974 5974 5974 5974 5974 5975 5975 5975 5975
5908 5909 5911 5913 5914 5915 5917 5919 5920 5921 5923 5925 5927 5928 5930 5931 5932 5933 5935 5936 5937 5939 5940 5941 5942 5943 5944 5945 5946 5947 5947 5948 5949 5949 5950 5951 5952 5953 5954 5955 5956 5957 5958 5959 5960 5961 5961 5962 5963 5964 5965 5965 5966 5967 5967 5968 5968 5969 5969 5969 5970 5970 5971 5971 5972 5972 5972 5972 5973 5973 5973 5973 5973 5973 5973 5973 5973 5973 5973 5973 5973 5973 5973 5973 5974
5906 5907 5909 5910 5912 5914 5915 5916 5918 5920 5921 5922 5924 5926 5927 5929 5930 5931 5932 5934 5935 5937 5938 5940 5941 5942 5943 5944 5944 5945 5946 5946 5947 5947 5949 5950 5950 5951 5952 5953 5954 5955 5956 5957 5958 5959 5960 5961 5962 5963 5964 5964 5965 5966 5966 5967 5967 5967 5968 5968 5969 5969 5970 5970 5971 5971 5971 5971 5972 5972 5972 5972 5972 5972 5972 5973 5973 5972 5972 5972 5972 5972 5972 5972 5972
5905 5906 5907 5909 5910 5913 5914 5914 5915 5917 5919 5921 5923 5924 5926 5927 5928 5929 5930 5932 5933 5935 5936 5937 5938 5940 5941 5942 5943 5944 5944 5944 5945 5945 5947 5948 5949 5950 5951 5951 5952 5953 5954 5955 5956 5956 5957 5959 5960 5961 5962 5963 5964 5964 5965 5965 5966 5966 5966 5967 5968 5968 5969 5969 5969 5970 5970 5970 5970 5970 5970 5970 5970 5971 5971 5971 5971 5971 5971 5971 5971 5971 5971 5971 5971
5903 5904 5906 5907 5908 5910 5911 5912 5913 5915 5917 5920 5921 5922 5924 5925 5926 5927 5929 5930 5931 5932 5933 5935 5936 5937 5939 5940 5941 5942 5942 5943 5943 5944 5945 5946 5947 5948 5949 5950 5951 5951 5952 5953 5954 5954 5955 5956 5957 5958 5959 5960 5961 5962 5963 5963 5964 5964 5965 5965 5966 5967 5967 5968 5968 5968 5968 5968 5968 5968 5968 5968 5968 5969 5969 5969 5970 5970 5970 5970 5970 5970 5970 5970 5969
5901 5903 5904 5905 5906 5907 5908 5909 5910 5913 5915 5917 5918 5920 5921 5923 5924 5925 5926 5927 5928 5929 5931 5932 5933 5935 5936 5937 5938 5939 5940 5941 5942 5942 5943 5945 5946 5947 5947 5948 5949 5949 5950 5951 5952 5952 5953 5954 5955 5956 5957 5958 5959 5959 5960 5961 5962 5962 5963 5963 5964 5965 5965 5965 5965 5965 5966 5966 5966 5966 5966 5966 5966 5967 5967 5967 5968 5968 5968 5968 5969 5969 5968 5968 5967
5899 5900 5902 5903 5903 5905 5906 5907 5908 5910 5912 5913 5915 5916 5918 5920 5921 5922 5923 5924 5926 5928 5929 5930 5931 5933 5934 5935 5936 5936 5937 5938 5939 5940 5941 5942 5943 5945 5945 5946 5947 5947 5948 5948 5949 5950 5951 5951 5952 5953 5954 5955 5956 5957 5958 5959 5960 5960 5961 5961 5962 5962 5962 5962 5962 5962 5962 5963 5963 5964 5964 5964 5964 5965 5965 5965 5966 5966 5966 5966 5966 5966 5966 5966 5965
5896 5898 5899 5900 5901 5902 5903 5904 5906 5907 5909 5911 5912 5912 5914 5916 5917 5919 5920 5922 5924 5926 5927 5928 5929 5930 5931 5932 5933 5934 5934 5935 5936 5938 5939 5940 5941 5942 5943 5944 5944 5945 5945 5946 5946 5947 5948 5949 5950 5951 5952 5953 5954 5954 5956 5957 5958 5958 5959 5959 5960 5960 5960 5960 5960 5960 5960 5960 5961 5961 5962 5962 5963 5963 5963 5963 5964 5964 5964 5964 5964 5964 5963 5963 5963
5893 5894 5896 5897 5898 5900 5901 5902 5903 5904 5906 5908 5909 5910 5911 5913 5914 5916 5918 5919 5921 5923 5924 5925 5926 5927 5928 5928 5929 5930 5931 5933 5934 5935 5937 5938 5939 5940 5941 5942 5942 5942 5942 5943 5944 5944 5945 5946 5947 5948 5950 5950 5951 5952 5953 5954 5955 5955 5956 5957 5957 5958 5958 5958 5958 5958 5958 5958 5959 5959 5959 5960 5960 5961 5961 5962 5962 5962 5962 5962 5962 5962 5962 5961 5961
5889 5891 5893 5894 5895 5897 5898 5899 5900 5902 5903 5905 5906 5907 5908 5910 5911 5913 5914 5916 5917 5919 5921 5922 5922 5924 5925 5926 5927 5928 5929 5930 5931 5933 5934 5935 5936 5937 5938 5938 5939 5939 5940 5940 5940 5941 5942 5943 5944 5945 5947 5948 5949 5949 5950 5951 5952 5953 5953 5954 5955 5956 5956 5956 5956 5956 5956 5956 5957 5957 5957 5957 5958 5958 5959 5959 5960 5960 5960 5960 5959 5960 5960 5959 5959
5886 5888 5889 5891 5892 5894 5895 5896 5898 5899 5900 5902 5903 5904 5905 5907 5908 5909 5911 5912 5913 5914 5916 5917 5919 5920 5922 5923 5924 5925 5926 5927 5929 5930 5931 5931 5931 5932 5933 5934 5935 5936 5937 5937 5938 5938 5939 5940 5941 5942 5944 5945 5947 5947 5947 5948 5949 5950 5950 5951 5952 5953 5953 5954 5954 5954 5954 5955 5955 5955 5955 5955 5955 5956 5956 5957 5957 5957 5958 5957 5957 5957 5957 5957 5957
5882 5884 5886 5888 5889 5890 5892 5894 5895 5896 5897 5898 5900 5901 5902 5904 5905 5906 5907 5908 5909 5911 5912 5914 5915 5917 5918 5919 5920 5922 5923 5924 5925 5926 5926 5926 5927 5928 5930 5931 5932 5933 5934 5934 5935 5936 5937 5937 5938 5939 5941 5943 5944 5944 5944 5945 5946 5946 5947 5948 5949 5950 5950 5951 5951 5952 5952 5952 5952 5953 5953 5953 5953 5953 5954 5954 5954 5954 5955 5955 5955 5955 5955 5955 5955
5879 5881 5883 5884 5886 5887 5889 5890 5892 5893 5894 5895 5896 5898 5899 5901 5902 5902 5903 5904 5906 5907 5909 5910 5911 5912 5913 5915 5916 5917 5918 5920 5921 5921 5922 5922 5924 5926 5927 5928 5929 5929 5930 5931 5932 5933 5933 5934 5935 5936 5938 5939 5940 5940 5941 5942 5942 5943 5944 5945 5946 5946 5947 5948 5948 5949 5949 5949 5950 5950 5950 5950 5950 5951 5951 5951 5951 5951 5951 5952 5952 5952 5952 5952 5952
5875 5877 5879 5880 5882 5884 5886 5887 5888 5889 5891 5892 5893 5894 5896 5898 5898 5899 5900 5901 5902 5903 5905 5906 5906 5908 5910 5911 5911 5912 5914 5915 5916 5917 5918 5919 5921 5922 5923 5924 5925 5926 5926 5927 5928 5929 5930 5930 5931 5933 5935 5936 5936 5937 5938 5938 5939 5940 5941 5942 5943 5943 5944 5945 5946 5946 5946 5946 5946 5947 5947 5947 5947 5948 5948 5948 5948 5948 5948 5948 5949 5949 5949 5949 5949
5872 5873 5875 5876 5878 5880 5881 5883 5884 5885 5887 5888 5890 5891 5892 5894 5895 5896 5897 5898 5899 5900 5900 5901 5902 5904 5905 5906 5908 5909 5910 5911 5912 5912 5914 5915 5915 5916 5918 5919 5919 5921 5921 5921 5923 5925 5926 5926 5927 5929 5932 5932 5933 5934 5935 5936 5937 5938 5938 5939 5940 5940 5941 5942 5942 5943 5943 5943 5943 5943 5943 5944 5945 5945 5945 5945 5945 5945 5945 5945 5945 5945 5946 5946 5946
5868 5869 5871 5872 5874 5875 5877 5878 5880 5881 5882 5884 5886 5887 5888 5890 5891 5892 5893 5895 5896 5896 5896 5897 5898 5899 5900 5902 5903 5904 5906 5907 5908 5909 5909 5910 5910 5911 5913 5913 5914 5916 5916 5916 5918 5921 5922 5923 5924 5926 5928 5928 5929 5931 5932 5933 5934 5935 5935 5936 5937 5937 5937 5938 5939 5939 5939 5939 5939 5939 5939 5940 5942 5942 5941 5941 5942 5942 5942 5942 5942 5942 5942 5943 5943
5863 5865 5866 5868 5869 5871 5872 5874 5875 5877 5878 5880 5881 5883 5885 5886 5887 5888 5889 5891 5892 5892 5893 5894 5895 5895 5896 5897 5898 5900 5901 5903 5904 5905 5906 5906 5906 5906 5907 5908 5909 5911 5911 5912 5914 5916 5918 5920 5921 5922 5923 5924 5925 5927 5928 5929 5930 5931 5932 5933 5933 5934 5934 5934 5935 5935 5935 5935 5936 5936 5936 5937 5938 5938 5937 5938 5938 5938 5938 5939 5939 5939 5939 5939 5940
5858 5860 5861 5863 5865 5866 5868 5869 5871 5872 5874 5875 5877 5879 5881 5882 5883 5884 5885 5887 5887 5888 5890 5892 5891 5891 5892 5894 5895 5896 5897 5899 5900 5901 5901 5902 5903 5903 5903 5904 5905 5906 5906 5908 5910 5912 5914 5916 5917 5918 5919 5920 5921 5922 5923 5924 5926 5927 5928 5929 5929 5930 5931 5931 5931 5931 5931 5932 5933 5933 5933 5932 5933 5934 5934 5934 5934 5934 5935 5935 5936 5936 5936 5936 5936
5853 5854 5856 5858 5860 5861 5863 5865 5866 5867 5869 5870 5872 5874 5877 5878 5880 5880 5881 5882 5883 5884 5886 5887 5887 5888 5889 5891 5892 5893 5894 5895 5896 5897 5898 5899 5900 5900 5900 5901 5901 5901 5901 5904 5906 5908 5910 5911 5912 5913 5914 5915 5917 5918 5919 5920 5921 5923 5924 5925 5925 5926 5926 5926 5927 5927 5927 5927 5928 5930 5930 5929 5929 5929 5930 5931 5931 5931 5931 5931 5932 5932 5932 5933 5932
5847 5849 5851 5852 5854 5856 5858 5860 5861 5863 5864 5866 5867 5869 5872 5874 5875 5876 5877 5878 5879 5881 5882 5883 5883 5884 5886 5887 5888 5889 5891 5892 5892 5893 5895 5896 5896 5896 5897 5897 5897 5897 5898 5900 5902 5903 5905 5906 5907 5908 5910 5911 5912 5914 5915 5916 5917 5918 5919 5920 5921 5921 5922 5922 5922 5922 5922 5923 5923 5925 5926 5925 5924 5925 5926 5926 5927 5927 5927 5927 5928 5928 5928 5929 5929
5841 5843 5845 5847 5849 5851 5853 5855 5857 5858 5859 5861 5863 5865 5867 5869 5870 5872 5874 5875 5876 5877 5879 5879 5880 5882 5883 5883 5885 5886 5888 5889 5889 5890 5891 5893 5893 5894 5894 5894 5894 5895 5896 5898 5899 5900 5900 5902 5903 5904 5906 5907 5908 5909 5910 5911 5913 5914 5915 5916 5916 5917 5917 5917 5918 5918 5918 5919 5919 5919 5921 5921 5920 5921 5922 5922 5923 5923 5923 5923 5923 5924 5924 5924 5925
5835 5836 5838 5840 5843 5845 5847 5849 5851 5853 5855 5856 5858 5860 5862 5864 5866 5868 5870 5872 5873 5874 5875 5876 5877 5879 5880 5881 5882 5883 5885 5886 5886 5886 5887 5888 5890 5892 5893 5893 5893 5894 5895 5896 5897 5896 5897 5899 5900 5901 5902 5903 5903 5904 5905 5906 5908 5909 5910 5911 5911 5912 5912 5912 5913 5914 5914 5914 5914 5915 5915 5916 5916 5916 5917 5918 5918 5918 5919 5919 5919 5919 5919 5920 5920
5829 5830 5831 5833 5836 5838 5841 5843 5845 5848 5850 5851 5853 5855 5857 5859 5861 5863 5865 5867 5869 5870 5871 5872 5874 5875 5877 5877 5878 5880 5882 5883 5882 5883 5884 5884 5885 5888 5890 5890 5891 5892 5893 5895 5895 5894 5895 5897 5897 5898 5899 5899 5899 5900 5901 5902 5903 5904 5905 5906 5906 5907 5907 5908 5908 5909 5909 5909 5909 5910 5910 5911 5911 5912 5912 5913 5914 5914 5915 5915 5915 5915 5915 5915 5915
5823 5824 5825 5826 5829 5832 5834 5837 5840 5842 5845 5847 5849 5851 5853 5855 5856 5858 5860 5862 5864 5866 5867 5868 5869 5871 5873 5874 5875 5876 5878 5879 5879 5880 5881 5881 5882 5884 5886 5887 5888 5889 5891 5892 5892 5892 5893 5895 5895 5896 5897 5897 5896 5897 5898 5899 5900 5900 5901 5902 5902 5902 5903 5904 5904 5904 5904 5905 5905 5905 5905 5906 5907 5907 5908 5908 5909 5909 5910 5910 5910 5910 5911 5911 5910
5817 5819 5820 5820 5822 5825 5828 5831 5833 5836 5839 5841 5844 5846 5848 5850 5852 5854 5856 5858 5860 5862 5863 5864 5865 5867 5868 5870 5871 5872 5873 5875 5876 5877 5878 5879 5879 5881 5882 5883 5884 5886 5887 5888 5888 5889 5890 5892 5893 5893 5893 5894 5894 5894 5895 5896 5896 5897 5897 5898 5898 5899 5900 5900 5900 5900 5900 5901 5901 5901 5901 5902 5902 5903 5903 5904 5904 5904 5905 5905 5905 5905 5906 5906 5906
5811 5813 5816 5817 5817 5818 5822 5825 5827 5830 5833 5836 5838 5841 5843 5845 5847 5849 5851 5853 5855 5856 5858 5859 5861 5862 5863 5865 5867 5868 5869 5870 5872 5873 5875 5876 5876 5877 5879 5880 5881 5882 5882 5883 5884 5885 5886 5888 5889 5889 5889 5890 5890 5891 5891 5892 5892 5893 5893 5894 5894 5895 5896 5896 5897 5897 5897 5897 5898 5898 5898 5898 5898 5899 5899 5899 5900 5900 5900 5900 5900 5900 5901 5901 5901
5805 5807 5810 5812 5813 5814 5816 5818 5821 5824 5827 5830 5833 5835 5837 5839 5842 5843 5845 5847 5849 5851 5853 5854 5856 5857 5859 5860 5862 5864 5865 5866 5868 5869 5870 5872 5873 5874 5876 5877 5878 5879 5879 5879 5880 5881 5882 5883 5884 5885 5886 5886 5887 5887 5888 5888 5889 5889 5890 5890 5890 5891 5891 5891 5892 5892 5893 5893 5893 5894 5894 5895 5895 5895 5895 5895 5895 5895 5895 5895 5895 5895 5895 5895 5895
5799 5800 5802 5805 5807 5809 5811 5814 5816 5819 5822 5824 5827 5830 5832 5834 5836 5838 5840 5842 5844 5846 5848 5849 5851 5852 5854 5855 5857 5859 5860 5862 5863 5865 5866 5867 5869 5871 5872 5873 5874 5875 5876 5876 5877 5878 5878 5879 5880 5881 5882 5882 5883 5883 5884 5884 5885 5885 5885 5886 5886 5886 5886 5887 5887 5888 5888 5889 5889 5889 5890 5890 5890 5890 5890 5891 5891 5891 5891 5891 5890 5890 5890 5890 5889
5794 5794 5795 5797 5799 5802 5805 5808 5811 5814 5817 5819 5822 5824 5826 5829 5831 5833 5835 5837 5838 5840 5842 5844 5846 5847 5849 5850 5852 5854 5855 5857 5858 5860 5861 5863 5864 5866 5867 5869 5870 5871 5872 5872 5873 5874 5875 5875 5876 5877 5877 5878 5878 5879 5879 5879 5880 5880 5880 5881 5881 5882 5882 5882 5883 5883 5884 5884 5885 5885 5885 5885 5885 5885 5885 5885 5885 5885 5885 5885 5885 5885 5885 5885 5884
5791 5790 5790 5792 5793 5796 5799 5802 5805 5808 5811 5813 5816 5818 5820 5822 5825 5827 5829 5831 5833 5835 5837 5838 5841 5842 5844 5845 5847 5848 5850 5852 5853 5855 5856 5858 5859 5861 5862 5863 5865 5866 5867 5868 5869 5869 5870 5871 5872 5872 5873 5873 5874 5875 5875 5875 5875 5876 5876 5876 5876 5877 5877 5877 5878 5878 5879 5879 5880 5880 5880 5880 5880 5880 5880 5880 5880 5880 5879 5879 5879 5879 5879 5879 5879